Satellite: MET-3/5
Catalog number: 21655
Epoch time:      08198.97311809
Element set:    0464
Inclination:      082.5528 deg
RA of node:       083.3444 deg
Eccentricity:    0.0012852
Arg of perigee:   304.8295 deg
Mean anomaly:     055.1618 deg
Mean motion:   13.17015943 rev/day
Decay rate:        5.1e-07 rev/day^2
Epoch rev:           81350
Checksum:              304

Satellite: MET-2/21
Catalog number: 22782
Epoch time:      08198.78590062
Element set:    0199
Inclination:      082.5475 deg
RA of node:       088.1016 deg
Eccentricity:    0.0021706
Arg of perigee:   203.8225 deg
Mean anomaly:     156.1935 deg
Mean motion:   13.83630865 rev/day
Decay rate:       -1.7e-07 rev/day^2
Epoch rev:           75122
Checksum:              311

Satellite: OKEAN-4
Catalog number: 23317
Epoch time:      08198.75240143
Element set:     641
Inclination:      082.5403 deg
RA of node:       287.4823 deg
Eccentricity:    0.0023285
Arg of perigee:   033.8257 deg
Mean anomaly:     326.4457 deg
Mean motion:   14.82623083 rev/day
Decay rate:        8.0e-07 rev/day^2
Epoch rev:           74266
Checksum:              299

Satellite: NOAA-14
Catalog number: 23455
Epoch time:      08198.84815872
Element set:    0225
Inclination:      098.9454 deg
RA of node:       271.1073 deg
Eccentricity:    0.0010279
Arg of perigee:   064.3295 deg
Mean anomaly:     295.8948 deg
Mean motion:   14.13743243 rev/day
Decay rate:      -2.74e-06 rev/day^2
Epoch rev:           69854
Checksum:              343

Satellite: SICH-1
Catalog number: 23657
Epoch time:      08199.40430609
Element set:     440
Inclination:      082.5269 deg
RA of node:       067.8666 deg
Eccentricity:    0.0024953
Arg of perigee:   024.4446 deg
Mean anomaly:     335.7959 deg
Mean motion:   14.81591631 rev/day
Decay rate:        9.0e-07 rev/day^2
Epoch rev:           69469
Checksum:              337

Satellite: NOAA-15
Catalog number: 25338
Epoch time:      08199.41571177
Element set:     546
Inclination:      098.5549 deg
RA of node:       190.5065 deg
Eccentricity:    0.0009886
Arg of perigee:   319.2467 deg
Mean anomaly:     040.7975 deg
Mean motion:   14.24715216 rev/day
Decay rate:       1.34e-06 rev/day^2
Epoch rev:           52910
Checksum:              331

Satellite: RESURS
Catalog number: 25394
Epoch time:      08198.96805925
Element set:    0980
Inclination:      098.3870 deg
RA of node:       241.5697 deg
Eccentricity:    0.0002266
Arg of perigee:   094.0975 deg
Mean anomaly:     266.0464 deg
Mean motion:   14.24164577 rev/day
Decay rate:       -1.0e-08 rev/day^2
Epoch rev:           52068
Checksum:              332

Satellite: FENGYUN1
Catalog number: 25730
Epoch time:      08199.90489173
Element set:     522
Inclination:      098.7213 deg
RA of node:       174.6475 deg
Eccentricity:    0.0022544
Arg of perigee:   082.0012 deg
Mean anomaly:     278.3715 deg
Mean motion:   14.07728189 rev/day
Decay rate:       7.91e-06 rev/day^2
Epoch rev:           47328
Checksum:              319

Satellite: OKEAN-0
Catalog number: 25860
Epoch time:      08198.51966346
Element set:    0420
Inclination:      097.7508 deg
RA of node:       187.7699 deg
Eccentricity:    0.0001165
Arg of perigee:   100.9017 deg
Mean anomaly:     259.2319 deg
Mean motion:   14.73528827 rev/day
Decay rate:        2.0e-07 rev/day^2
Epoch rev:           48371
Checksum:              321

Satellite: NOAA-16
Catalog number: 26536
Epoch time:      08199.45425047
Element set:      16
Inclination:      099.1565 deg
RA of node:       189.2949 deg
Eccentricity:    0.0011180
Arg of perigee:   136.8615 deg
Mean anomaly:     223.3435 deg
Mean motion:   14.12491133 rev/day
Decay rate:       2.91e-06 rev/day^2
Epoch rev:           40304
Checksum:              296

Satellite: NOAA-17
Catalog number: 27453
Epoch time:      08198.84490410
Element set:    0009
Inclination:      098.5335 deg
RA of node:       262.6111 deg
Eccentricity:    0.0012192
Arg of perigee:   027.0654 deg
Mean anomaly:     333.1133 deg
Mean motion:   14.23988587 rev/day
Decay rate:       1.53e-06 rev/day^2
Epoch rev:           31502
Checksum:              287

Satellite: NOAA-18
Catalog number: 28654
Epoch time:      08198.83181231
Element set:    0505
Inclination:      098.8665 deg
RA of node:       139.3978 deg
Eccentricity:    0.0013432
Arg of perigee:   227.9960 deg
Mean anomaly:     132.0102 deg
Mean motion:   14.11177456 rev/day
Decay rate:       1.74e-06 rev/day^2
Epoch rev:           16265
Checksum:              315

/EX
SB KEPS @ AMSAT  $ORB08199.M
Orbital Elements  08199.MISC

HR AMSAT ORBITAL ELEMENTS FOR MANNED AND MISCELLANEOUS SATELLITES
FROM WA5QGD FORT WORTH,TX July 17, 2008
Send Subscribe/unsubscribe to KEPS at 
http://www.amsat.org/mailman/listinfo/keps
BID: ORB08199.M
TO ALL RADIO AMATEURS BT

Satellite: HUBBLE
Catalog number: 20580
Epoch time:      08198.94448316
Element set:    0198
Inclination:      028.4673 deg
RA of node:       129.1303 deg
Eccentricity:    0.0003466
Arg of perigee:   338.8903 deg
Mean anomaly:     021.1541 deg
Mean motion:   15.00392806 rev/day
Decay rate:       2.75e-06 rev/day^2
Epoch rev:           79945
Checksum:              305

